Regional Weather Roundup
Issued by NWS

Home | Current Version | Previous Version | Graphics & Text | Print | Product List | Glossary On
Versions: 1 2 3 4 5 6 7 8 9 10 11 12 13 14 15 16 17 18 19 20 21 22 23 24 25 26 27 28 29 30 31 32 33 34 35 36 37 38 39 40 41 42 43 44 45 46 47 48 49 50
000
ASUS43 KDTX 292310
RWRMI
MICHIGAN HOURLY REGIONAL WEATHER ROUNDUP
NATIONAL WEATHER SERVICE DETROIT/PONTIAC MI
700 PM EDT MON JUN 29 2015

NOTE: "FAIR" INDICATES FEW OR NO CLOUDS BELOW 12,000 FEET WITH NO
SIGNIFICANT WEATHER AND/OR OBSTRUCTION TO VISIBILITY.

MIZ047>049-052>055-059>063-066>070-074>076-081>083-300000-
SOUTHEAST LOWER MICHIGAN

CITY           SKY/WX    TMP DP  RH WIND       PRES   REMARKS
ADRIAN         CLOUDY    67  58  72 S7        29.84F
ALMA           MOSUNNY   73  60  61 SE5       29.82S
ANN ARBOR      PTSUNNY   68  56  65 S7        29.84F
BAD AXE        SUNNY     76  55  48 S12       29.83S
CARO           MOSUNNY   72  60  64 S9        29.83S
DETROIT CITY   MOSUNNY   72  53  51 S13       29.84F
DETROIT        PTSUNNY   69  56  62 SE10      29.85F
FLINT          PTSUNNY   73  55  53 S9        29.83F
GROSSE ILE       N/A     70  61  73 S6        29.83F
HILLSDALE      PTSUNNY   64  61  91 S5        29.84F
HOWELL         PTSUNNY   70  54  56 SE8       29.83F

CITY           SKY/WX    TMP DP  RH WIND       PRES   REMARKS
JACKSON        PTSUNNY   67  56  67 S10       29.84F
LAMBERTVILLE   CLOUDY    68  56  64 SE9       29.85S
LANSING        MOSUNNY   72  55  55 SE9       29.83F
LAPEER         FAIR      72  53  52 S8        29.85S
MASON          MOSUNNY   67  56  67 S5        29.83F
MONROE         CLOUDY    68  58  71 SE6       29.83F
MT. CLEMENS    PTSUNNY   71  57  61 SE9       29.83F
PONTIAC        PTSUNNY   71  52  50 SE12      29.83F
PORT HOPE        N/A     74  57  55 SE9       29.80
PORT HURON     SUNNY     70  55  60 S8        29.86S
TRI CITIES     MOSUNNY   75  59  57 S13       29.82F
MIDLAND        FAIR      76  51  41 S10       29.81S
TROY           MOSUNNY   73  51  44 S9G16     29.85F
SAGINAW HB     MOSUNNY   73  57  56 S12       29.82S
$$
MIZ043>046-050>051-056>058-064>065-071>073-077>080-300000-
SOUTHWEST LOWER MICHIGAN

CITY           SKY/WX    TMP DP  RH WIND       PRES   REMARKS
BATTLE CREEK   MOSUNNY   70  58  65 SE9       29.83F
BENTON HARBOR  PTSUNNY   70  60  70 SE8       29.80F
BIG RAPIDS     MOSUNNY   72  56  56 SW10      29.80F
COLDWATER      PTSUNNY   64  57  78 SE7       29.84S
FREMONT        CLOUDY    74  51  44 S9        29.80F
HOLLAND        PTSUNNY   73  62  68 SW7       29.81S
GRAND RAPIDS   PTSUNNY   74  57  55 S10       29.81F
IONIA          FAIR      74  55  50 S9        29.81S
KALAMAZOO      MOSUNNY   68  56  65 S8G16     29.83S
LUDINGTON      SUNNY     71  62  74 SW9       29.81S
MARSHALL       MOSUNNY   68  57  68 SE6       29.82F
MOUNT PLEASANT MOSUNNY   74  57  55 S8        29.81S
MUSKEGON       PTSUNNY   71  60  68 SW10      29.81F
SOUTH HAVEN    PTSUNNY   68  63  82 SE5       29.80F
$$
MIZ016>042-300000-
NORTHERN LOWER MICHIGAN

CITY           SKY/WX    TMP DP  RH WIND       PRES   REMARKS
ALPENA         SUNNY     79  54  41 S16       29.78R
BEAVER ISLAND  SUNNY     69  49  48 W8        29.78S
BELLAIRE       MOSUNNY   77  50  37 W9        29.76S
CADILLAC       CLOUDY    73  56  56 SW12      29.81S
CHARLEVOIX     SUNNY     71  53  53 W8        29.80S
FRANKFORT      MOSUNNY   69  57  65 SW8       29.79F
GAYLORD        MOSUNNY   77  51  40 S9        29.79R
GRAYLING       CLOUDY    75  54  47 S3        29.80F
HARBOR SPRINGS SUNNY     77  51  39 W7        29.76S
HOUGHTON LAKE  MOSUNNY   74  54  49 S12       29.80S
MANISTEE       MOSUNNY  N/A N/A N/A W7        29.80S
OSCODA         SUNNY     74  55  50 SE7       29.80S
PELLSTON       SUNNY     79  50  36 NW10      29.77S
ROGERS CITY    PTSUNNY   75  58  53 N7        29.77R
TRAVERSE CITY  TSTM      66  60  81 S6        29.78R
$$
MIZ007>008-015-300000-
EASTERN UPPER MICHIGAN

CITY           SKY/WX    TMP DP  RH WIND       PRES   REMARKS
KINROSS        SUNNY     77  36  22 SW6       29.78R
MACKINAC ISLAN SUNNY     74  43  32 W5        29.77F
NEWBERRY       MOSUNNY   73  57  57 SW10      29.76F
S. S. MARIE    SUNNY     77  35  21 SW14      29.76R
MUNISING         N/A     67  62  84 S6        29.74F
$$
MIZ004>006-011>014-085-300000-
CENTRAL UPPER MICHIGAN

CITY           SKY/WX    TMP DP  RH WIND       PRES   REMARKS
MANISTIQUE     MOSUNNY   69  53  55 S7        29.76F
ESCANABA       PTSUNNY   72  57  60 S6        29.74S
MENOMINEE      CLOUDY    68  59  73 SW8       29.75S
SAWYER-GWINN   MOSUNNY   64  61  88 SE5       29.75F
$$
MIZ001>003-009>011-084-300000-
WESTERN UPPER MICHIGAN

CITY           SKY/WX    TMP DP  RH WIND       PRES   REMARKS
IRON MOUNTAIN  LGT RAIN  61  59  93 NW7       29.74R FOG
HOUGHTON       CLOUDY    62  56  80 NW12      29.74S
COPPER HARBOR    N/A     59  56  89 N8        29.74S
$$

ABBREVIATIONS USED IN REMARKS
   TC - TEMPERATURE IN CELSIUS
  WCI - WIND CHILL INDEX
   HX - HEAT INDEX
  VSB - VISIBILITY




USA.gov is the U.S. government's official web portal to all federal, state and local government web resources and services.